Location: Rumah Apan
(2.7833°N, 113.9500°E)
Time: 17:07:36
(UTC+00:00)

Ariane V96 H10-3 - Pass Details

Date: 25 July 2021
Orbit: 318 x 23393 km, 7.5° (Epoch: 17 September)

Event Time Altitude Azimuth Distance (km) Brightness Sun altitude
Rises 11:29:40 0° 259° (W) 7,718 9.7 -12.9°
Reaches altitude 10° 11:37:36 10° 256° (WSW) 4,310 8.2 -14.7°
Maximum altitude 11:45:41 53° 180° (S) 773 3.4 -16.6°
Enters shadow 11:46:46 35° 124° (ESE) 846 3.2 -16.9°
